| time (UTC) | temp F | wind direction | speed knots | gust knots | rain 1hr in | rain 24hr in | rain mn in | humidity % | barometer mb |
| 20260503225522 | 69 | 282 | 5.2 | 9.6 | 0.00 | 0.00 | 0.00 | 43 | 1003.6 |
| 20260503224521 | 69 | 292 | 4.3 | 7.8 | 0.00 | 0.00 | 0.00 | 44 | 1003.7 |
| 20260503223641 | 69 | 279 | 5.2 | 10.4 | 0.00 | 0.00 | 0.00 | 44 | 1003.8 |
| 20260503222518 | 69 | 294 | 4.3 | 10.4 | 0.00 | 0.00 | 0.00 | 44 | 1003.8 |
| 20260503221518 | 69 | 284 | 4.3 | 8.7 | 0.00 | 0.00 | 0.00 | 44 | 1003.8 |
| 20260503220518 | 68 | 279 | 5.2 | 10.4 | 0.00 | 0.00 | 0.00 | 44 | 1003.8 |
| 20260503215521 | 68 | 264 | 7.0 | 13.0 | 0.00 | 0.00 | 0.00 | 44 | 1003.8 |
| 20260503214542 | 68 | 274 | 6.1 | 10.4 | 0.00 | 0.00 | 0.00 | 45 | 1003.8 |
| 20260503213519 | 67 | 280 | 6.1 | 10.4 | 0.00 | 0.00 | 0.00 | 46 | 1003.9 |
| 20260503212519 | 67 | 269 | 6.1 | 10.4 | 0.00 | 0.00 | 0.00 | 46 | 1004.0 |
| 20260503211522 | 67 | 266 | 7.0 | 11.3 | 0.00 | 0.00 | 0.00 | 46 | 1004.0 |
| 20260503210601 | 67 | 275 | 7.0 | 13.0 | 0.00 | 0.00 | 0.00 | 46 | 1004.1 |
| 20260503205520 | 66 | 264 | 7.0 | 11.3 | 0.00 | 0.00 | 0.00 | 47 | 1004.2 |
| 20260503204520 | 66 | 271 | 6.1 | 14.8 | 0.00 | 0.00 | 0.00 | 48 | 1004.4 |
| 20260503203521 | 66 | 276 | 7.8 | 16.5 | 0.00 | 0.00 | 0.00 | 48 | 1004.5 |
| 20260503202522 | 66 | 271 | 8.7 | 13.0 | 0.00 | 0.00 | 0.00 | 48 | 1004.7 |
| 20260503201541 | 65 | 279 | 7.8 | 17.4 | 0.00 | 0.00 | 0.00 | 48 | 1004.8 |
| 20260503200521 | 65 | 263 | 8.7 | 13.9 | 0.00 | 0.00 | 0.00 | 48 | 1005.0 |
| 20260503195522 | 65 | 262 | 8.7 | 13.9 | 0.00 | 0.00 | 0.00 | 48 | 1005.1 |
| 20260503194518 | 65 | 273 | 7.8 | 13.0 | 0.00 | 0.00 | 0.00 | 49 | 1005.2 |
| 20260503193519 | 64 | 266 | 7.8 | 12.2 | 0.00 | 0.00 | 0.00 | 49 | 1005.4 |
| 20260503192522 | 64 | 257 | 8.7 | 14.8 | 0.00 | 0.00 | 0.00 | 48 | 1005.6 |
| 20260503191543 | 63 | 269 | 9.6 | 15.6 | 0.00 | 0.00 | 0.00 | 49 | 1005.7 |
| 20260503190521 | 63 | 274 | 10.4 | 18.2 | 0.00 | 0.00 | 0.00 | 49 | 1005.7 |
| 20260503185540 | 63 | 266 | 7.8 | 13.9 | 0.00 | 0.00 | 0.00 | 49 | 1005.7 |
| 20260503184519 | 63 | 260 | 10.4 | 17.4 | 0.00 | 0.00 | 0.00 | 48 | 1005.8 |
| 20260503183601 | 63 | 265 | 9.6 | 16.5 | 0.00 | 0.00 | 0.00 | 48 | 1005.9 |
| 20260503182519 | 62 | 264 | 10.4 | 22.6 | 0.00 | 0.00 | 0.00 | 50 | 1006.0 |
| 20260503181519 | 62 | 262 | 7.8 | 13.9 | 0.00 | 0.00 | 0.00 | 50 | 1006.1 |
| 20260503180601 | 61 | 261 | 7.0 | 12.2 | 0.00 | 0.00 | 0.00 | 53 | 1006.1 |
| 20260503175520 | 61 | 260 | 7.8 | 16.5 | 0.00 | 0.00 | 0.00 | 52 | 1006.3 |
| 20260503174524 | 61 | 264 | 8.7 | 14.8 | 0.00 | 0.00 | 0.00 | 53 | 1006.5 |
| 20260503173520 | 61 | 259 | 9.6 | 14.8 | 0.00 | 0.00 | 0.00 | 52 | 1006.6 |
| 20260503172521 | 60 | 263 | 8.7 | 13.9 | 0.00 | 0.00 | 0.00 | 51 | 1006.7 |
| 20260503171521 | 61 | 261 | 9.6 | 16.5 | 0.00 | 0.00 | 0.00 | 50 | 1006.9 |
| 20260503170520 | 61 | 265 | 7.0 | 13.0 | 0.00 | 0.00 | 0.00 | 53 | 1007.0 |
| 20260503150520 | 55 | 266 | 7.0 | 15.6 | 0.00 | 0.00 | 0.00 | 68 | 1008.6 |
| 20260503130539 | 51 | 274 | 7.0 | 12.2 | 0.00 | 0.00 | 0.00 | 66 | 1010.1 |
| 20260503110521 | 49 | 268 | 4.3 | 7.8 | 0.00 | 0.00 | 0.00 | 55 | 1010.1 |
| 20260503081523 | 48 | 282 | 3.5 | 7.0 | 0.00 | 0.00 | 0.00 | 54 | 1011.4 |
| 20260503080521 | 48 | 276 | 2.6 | 6.1 | 0.00 | 0.00 | 0.00 | 54 | 1011.4 |
| 20260503072519 | 48 | 273 | 2.6 | 5.2 | 0.00 | 0.00 | 0.00 | 53 | 1011.6 |
| 20260503071520 | 48 | 282 | 3.5 | 7.0 | 0.00 | 0.00 | 0.00 | 53 | 1011.6 |
| 20260503070520 | 48 | 279 | 3.5 | 6.1 | 0.00 | 0.00 | 0.00 | 52 | 1011.7 |
| 20260503054520 | 49 | 273 | 3.5 | 7.0 | 0.00 | 0.00 | 0.00 | 49 | 1012.3 |
| 20260503053521 | 49 | 272 | 3.5 | 7.0 | 0.00 | 0.00 | 0.00 | 49 | 1012.3 |
| 20260503052519 | 49 | 270 | 3.5 | 6.1 | 0.00 | 0.00 | 0.00 | 49 | 1012.4 |
| 20260503051522 | 49 | 274 | 3.5 | 5.2 | 0.00 | 0.00 | 0.00 | 49 | 1012.5 |
| 20260503050525 | 50 | 265 | 2.6 | 5.2 | 0.00 | 0.00 | 0.00 | 48 | 1012.6 |
| 20260503045521 | 50 | 272 | 3.5 | 5.2 | 0.00 | 0.00 | 0.00 | 48 | 1012.6 |
| 20260503044539 | 50 | 269 | 3.5 | 5.2 | 0.00 | 0.00 | 0.00 | 48 | 1012.7 |
| 20260503043519 | 50 | 269 | 3.5 | 5.2 | 0.00 | 0.00 | 0.00 | 48 | 1012.7 |
| 20260503042519 | 50 | 269 | 3.5 | 6.1 | 0.00 | 0.00 | 0.00 | 48 | 1012.8 |
| 20260503041522 | 50 | 268 | 2.6 | 6.1 | 0.00 | 0.00 | 0.00 | 48 | 1012.9 |
| 20260503040522 | 50 | 270 | 2.6 | 6.1 | 0.00 | 0.00 | 0.00 | 48 | 1013.0 |
| 20260503035519 | 50 | 277 | 2.6 | 4.3 | 0.00 | 0.00 | 0.00 | 48 | 1013.1 |
| 20260503034520 | 50 | 269 | 2.6 | 6.1 | 0.00 | 0.00 | 0.00 | 48 | 1013.2 |
| 20260503033541 | 49 | 276 | 2.6 | 5.2 | 0.00 | 0.00 | 0.00 | 49 | 1013.2 |
| 20260503032521 | 49 | 272 | 1.7 | 4.3 | 0.00 | 0.00 | 0.00 | 49 | 1013.3 |
| 20260503031521 | 49 | 279 | 2.6 | 4.3 | 0.00 | 0.00 | 0.00 | 49 | 1013.4 |
| 20260503030520 | 46 | 288 | 2.6 | 4.3 | 0.00 | 0.00 | 0.00 | 55 | 1013.4 |
| 20260503025522 | 43 | 304 | 1.7 | 4.3 | 0.00 | 0.00 | 0.00 | 65 | 1013.4 |
| 20260503024520 | 42 | 14 | 0.0 | 1.7 | 0.00 | 0.00 | 0.00 | 68 | 1013.4 |
| 20260503023522 | 43 | 345 | 0.0 | 0.9 | 0.00 | 0.00 | 0.00 | 67 | 1013.5 |
| 20260503022520 | 44 | 320 | 0.9 | 1.7 | 0.00 | 0.00 | 0.00 | 66 | 1013.5 |
| 20260503021521 | 44 | 313 | 0.0 | 1.7 | 0.00 | 0.00 | 0.00 | 64 | 1013.4 |
| 20260503020521 | 45 | 305 | 0.0 | 0.9 | 0.00 | 0.00 | 0.00 | 60 | 1013.4 |
| 20260503015518 | 46 | 328 | 0.0 | 0.9 | 0.00 | 0.00 | 0.00 | 59 | 1013.4 |
| 20260503014518 | 47 | 237 | 0.0 | 1.7 | 0.00 | 0.00 | 0.00 | 57 | 1013.3 |
| 20260503013522 | 48 | 313 | 0.9 | 2.6 | 0.00 | 0.00 | 0.00 | 57 | 1013.3 |
| 20260503012522 | 50 | 316 | 1.7 | 3.5 | 0.00 | 0.00 | 0.00 | 54 | 1013.3 |
| 20260503011519 | 51 | 302 | 1.7 | 2.6 | 0.00 | 0.00 | 0.00 | 51 | 1013.2 |
| 20260503010519 | 52 | 302 | 1.7 | 2.6 | 0.00 | 0.00 | 0.00 | 49 | 1013.2 |
| 20260503005519 | 53 | 290 | 1.7 | 4.3 | 0.00 | 0.00 | 0.00 | 46 | 1013.3 |
| 20260503004519 | 54 | 288 | 4.3 | 7.0 | 0.00 | 0.00 | 0.00 | 44 | 1013.3 |
| 20260503003520 | 55 | 287 | 3.5 | 7.8 | 0.00 | 0.00 | 0.00 | 44 | 1013.3 |
| 20260503002519 | 56 | 286 | 5.2 | 9.6 | 0.00 | 0.00 | 0.00 | 42 | 1013.4 |
| 20260503001522 | 57 | 278 | 5.2 | 9.6 | 0.00 | 0.00 | 0.00 | 40 | 1013.4 |
| 20260503000542 | 57 | 276 | 5.2 | 9.6 | 0.00 | 0.00 | 0.00 | 39 | 1013.6 |
| 20260502235521 | 58 | 274 | 6.1 | 12.2 | 0.00 | 0.00 | 0.00 | 40 | 1013.7 |
| 20260502234541 | 57 | 289 | 4.3 | 9.6 | 0.00 | 0.00 | 0.00 | 40 | 1013.9 |
| 20260502233521 | 58 | 280 | 4.3 | 8.7 | 0.00 | 0.00 | 0.00 | 39 | 1013.9 |
| 20260502232521 | 58 | 278 | 6.1 | 11.3 | 0.00 | 0.00 | 0.00 | 39 | 1013.9 |
| 20260502231521 | 58 | 283 | 6.1 | 11.3 | 0.00 | 0.00 | 0.00 | 38 | 1014.0 |
| 20260502230522 | 58 | 295 | 6.1 | 12.2 | 0.00 | 0.00 | 0.00 | 38 | 1014.1 |